Track COSMOS 1464 now! 10-day predictions COSMOS 1464 is classified as:
1 14084U 83048A 22187.53941602 .00000043 00000-0 29302-4 0 9997 2 14084 82.9445 192.0942 0031545 88.8804 27.5432 13.74496686962095